Date String (YYYY-MM-DD hh:mm:ss) UTC,Instrument flags,Ambient pressure (hPa),Sample flow (lpm),Bypass flow (lpm),Sample temperature (°C),Ambient temperature (°C),ASC tube jacket temperature (°C),LED temperature (°C),Box temperature (°C),Sample RH (%),Span deviation,Mass concentration (μg/m³),Mass concentration (μg/m³),Mass concentration (μg/m³)
DateTimeUTC,F1_M11,P_M11,Q1_M11,Q2_M11,T1_M11,T2_M11,T3_M11,T4_M11,T5_M11,U1_M11,ZSPAN_M11,X0_M11,X2_M11,X1_M11
2022-01-22 04:00:00,,0833.2,5.00,0.00,22.4,21.8,00.0,31.4,24.2,16.7,-001.1,0011.78,0006.37,0006.07
2022-01-22 04:01:00,,0833.2,5.00,0.00,22.4,21.8,00.0,31.4,24.2,16.7,-001.2,0011.83,0006.33,0006.03
2022-01-22 04:02:00,,0833.2,4.99,0.00,22.4,21.7,00.0,31.4,24.1,16.7,-001.0,0011.73,0006.27,0005.98
2022-01-22 04:03:00,,0833.2,5.02,0.00,22.4,21.7,00.0,31.4,24.1,16.8,-001.3,0011.64,0006.23,0005.94
2022-01-22 04:04:00,,0833.2,4.99,0.00,22.3,21.7,00.0,31.4,24.1,16.8,-001.4,0011.52,0006.20,0005.91
2022-01-22 04:05:00,,0833.2,5.00,0.00,22.3,21.7,00.0,31.4,24.1,16.8,-001.3,0012.21,0006.21,0005.92
2022-01-22 04:06:00,,0833.1,5.01,0.00,22.3,21.7,00.0,31.3,24.1,16.7,-001.3,0011.79,0006.17,0005.89
2022-01-22 04:07:00,,0833.2,4.99,0.00,22.3,21.7,00.0,31.3,24.1,16.6,-001.6,0011.19,0006.09,0005.83
2022-01-22 04:08:00,,0833.2,5.01,0.00,22.3,21.7,00.0,31.3,24.1,16.6,-001.8,0010.87,0005.98,0005.73
2022-01-22 04:09:00,,0833.2,4.98,0.00,22.3,21.7,00.0,31.3,24.1,16.5,-001.7,0010.19,0005.90,0005.67
2022-01-22 04:10:00,,0833.2,5.02,0.00,22.3,21.6,00.0,31.3,24.1,16.5,-002.1,0009.81,0005.87,0005.64
2022-01-22 04:11:00,,0833.3,4.99,0.00,22.3,21.6,00.0,31.3,24.0,16.5,-002.1,0009.52,0005.83,0005.61
2022-01-22 04:12:00,,0833.3,4.99,0.00,22.3,21.6,00.0,31.3,24.0,16.5,-002.0,0009.31,0005.75,0005.55
2022-01-22 04:13:00,,0833.3,5.01,0.00,22.3,21.6,00.0,31.3,24.0,16.5,-002.1,0009.24,0005.69,0005.49
2022-01-22 04:14:00,,0833.3,5.00,0.00,22.2,21.6,00.0,31.3,24.0,16.4,-001.7,0009.06,0005.56,0005.39
2022-01-22 04:15:00,,0833.4,5.01,0.00,22.2,21.6,00.0,31.3,24.0,16.4,-001.2,0008.89,0005.47,0005.30
2022-01-22 04:16:00,,0833.4,5.00,0.00,22.2,21.6,00.0,31.3,24.0,16.4,-000.8,0008.17,0005.38,0005.22
2022-01-22 04:17:00,,0833.4,5.00,0.00,22.2,21.6,00.0,31.3,24.0,16.4,-000.5,0008.18,0005.34,0005.17
2022-01-22 04:18:00,,0833.4,4.99,0.00,22.2,21.7,00.0,31.3,24.0,16.4,-000.5,0008.11,0005.30,0005.13
2022-01-22 04:19:00,,0833.4,5.00,0.00,22.3,22.3,00.0,31.3,24.1,16.3,-000.1,0007.82,0005.27,0005.10
2022-01-22 04:20:00,,0833.4,5.00,0.00,22.4,23.0,00.0,31.3,24.4,16.2,0000.3,0007.70,0005.28,0005.08
2022-01-22 04:21:00,,0833.4,5.01,0.00,22.5,23.0,00.0,31.4,24.5,16.1,0000.6,0007.71,0005.26,0005.06
2022-01-22 04:22:00,,0833.4,4.99,0.00,22.5,22.8,00.0,31.4,24.5,16.1,0000.7,0007.71,0005.25,0005.04
2022-01-22 04:23:00,,0833.4,4.98,0.00,22.6,22.7,00.0,31.4,24.4,16.1,0001.0,0007.72,0005.23,0005.02
2022-01-22 04:24:00,,0833.4,5.01,0.00,22.6,22.5,00.0,31.4,24.4,16.1,0001.5,0007.69,0005.21,0005.02
2022-01-22 04:25:00,,0833.4,4.99,0.00,22.5,22.4,00.0,31.4,24.4,16.1,0001.5,0007.75,0005.26,0005.06
2022-01-22 04:26:00,,0833.4,5.00,0.00,22.5,22.3,00.0,31.4,24.4,16.2,0001.2,0007.76,0005.29,0005.09
2022-01-22 04:27:00,,0833.4,5.02,0.00,22.5,22.2,00.0,31.4,24.3,16.2,0000.7,0007.87,0005.35,0005.13
2022-01-22 04:28:00,,0833.4,4.99,0.00,22.5,22.1,00.0,31.4,24.3,16.2,0000.0,0007.90,0005.39,0005.17
2022-01-22 04:29:00,,0833.4,5.01,0.00,22.5,22.1,00.0,31.4,24.3,16.2,-000.0,0007.97,0005.44,0005.20
2022-01-22 04:30:00,,0833.4,4.99,0.00,22.5,22.0,00.0,31.4,24.3,16.3,0000.1,0008.04,0005.49,0005.24
2022-01-22 04:31:00,,0833.4,5.01,0.00,22.5,22.0,00.0,31.4,24.3,16.3,0000.3,0008.03,0005.52,0005.27
2022-01-22 04:32:00,,0833.3,4.99,0.00,22.5,21.9,00.0,31.4,24.3,16.3,-000.4,0008.03,0005.53,0005.30
2022-01-22 04:33:00,,0833.3,5.00,0.00,22.5,21.9,00.0,31.4,24.3,16.3,-000.9,0008.04,0005.55,0005.32
2022-01-22 04:34:00,,0833.3,5.01,0.00,22.5,21.9,00.0,31.4,24.3,16.2,-001.0,0007.99,0005.56,0005.34
2022-01-22 04:35:00,,0833.3,4.99,0.00,22.5,21.9,00.0,31.4,24.2,16.2,-001.3,0008.03,0005.59,0005.36
2022-01-22 04:36:00,,0833.2,5.00,0.00,22.4,21.9,00.0,31.4,24.2,16.3,-001.5,0008.00,0005.58,0005.36
2022-01-22 04:37:00,,0833.3,4.99,0.00,22.4,21.9,00.0,31.4,24.2,16.2,-001.9,0007.94,0005.57,0005.36
2022-01-22 04:38:00,,0833.3,5.01,0.00,22.4,21.8,00.0,31.4,24.2,16.2,-002.1,0007.86,0005.55,0005.36
2022-01-22 04:39:00,,0833.3,4.99,0.00,22.4,21.8,00.0,31.4,24.2,16.1,-001.8,0007.73,0005.52,0005.35
2022-01-22 04:40:00,,0833.3,5.00,0.00,22.4,21.8,00.0,31.4,24.2,16.0,-001.5,0007.67,0005.48,0005.33
2022-01-22 04:41:00,,0833.2,5.00,0.00,22.4,21.8,00.0,31.4,24.2,16.0,-001.6,0007.56,0005.42,0005.29
2022-01-22 04:42:00,,0833.2,5.01,0.00,22.4,21.8,00.0,31.4,24.2,16.0,-001.9,0007.52,0005.39,0005.27
2022-01-22 04:43:00,,0833.3,4.99,0.00,22.4,21.8,00.0,31.4,24.1,16.0,-001.7,0007.47,0005.37,0005.26
2022-01-22 04:44:00,,0833.3,5.01,0.00,22.4,21.8,00.0,31.4,24.1,16.0,-001.8,0007.41,0005.34,0005.23
2022-01-22 04:45:00,,0833.3,4.99,0.00,22.4,21.7,00.0,31.4,24.1,15.9,-002.1,0007.40,0005.33,0005.21
2022-01-22 04:46:00,,0833.4,5.02,0.00,22.4,21.7,00.0,31.4,24.1,15.7,-002.1,0007.42,0005.28,0005.16
2022-01-22 04:47:00,,0833.3,4.99,0.00,22.4,21.7,00.0,31.4,24.1,15.6,-002.1,0007.47,0005.24,0005.12
2022-01-22 04:48:00,,0833.3,5.01,0.00,22.4,21.7,00.0,31.4,24.1,15.6,-001.7,0007.42,0005.19,0005.07
2022-01-22 04:49:00,,0833.3,4.99,0.00,22.3,21.7,00.0,31.3,24.1,15.6,-001.1,0007.35,0005.14,0005.02
2022-01-22 04:50:00,,0833.4,5.02,0.00,22.3,21.7,00.0,31.3,24.1,15.6,-001.4,0007.29,0005.12,0005.00
2022-01-22 04:51:00,,0833.4,4.99,0.00,22.3,21.7,00.0,31.3,24.1,15.6,-001.2,0007.30,0005.11,0004.98
2022-01-22 04:52:00,,0833.5,5.01,0.00,22.3,21.7,00.0,31.3,24.1,15.6,-001.9,0007.26,0005.08,0004.96
2022-01-22 04:53:00,,0833.4,5.00,0.00,22.3,21.7,00.0,31.3,24.1,15.5,-001.7,0007.15,0005.04,0004.91
2022-01-22 04:54:00,,0833.4,5.01,0.00,22.3,21.7,00.0,31.3,24.1,15.4,-001.4,0007.19,0005.01,0004.87
2022-01-22 04:55:00,,0833.5,4.99,0.00,22.3,21.7,00.0,31.3,24.1,15.5,-000.4,0007.21,0004.99,0004.84
2022-01-22 04:56:00,,0833.5,5.01,0.00,22.3,21.6,00.0,31.3,24.1,15.5,-000.4,0007.16,0004.96,0004.81
2022-01-22 04:57:00,,0833.4,4.99,0.00,22.3,21.6,00.0,31.3,24.0,15.5,0000.0,0007.00,0004.95,0004.81
2022-01-22 04:58:00,,0833.4,5.00,0.00,22.3,21.6,00.0,31.3,24.0,15.5,-000.2,0006.80,0004.95,0004.81
2022-01-22 04:59:00,,0833.4,5.01,0.00,22.3,21.6,00.0,31.3,24.0,15.6,-000.5,0006.85,0004.95,0004.80
